This is the latest recevied weather packets stored in our database for station/object DN9EL-10. If no packets are shown the sender has not sent any weather packets the latest 10 day(s).
| Time | Temp. | Humidity | Pressure | Rain* | Wind** | Luminosity | Snow |
|---|---|---|---|---|---|---|---|
| 1777505587 | 3.89° C | 46% | 975.1 hPa | - | - | - | - |
| 1777504687 | 4.44° C | 45% | 975.3 hPa | - | - | - | - |
| 1777503787 | 5° C | 45% | 975.2 hPa | - | - | - | - |
| 1777502887 | 5° C | 45% | 975.1 hPa | - | - | - | - |
| 1777501987 | 5.56° C | 45% | 975.1 hPa | - | - | - | - |
| 1777501087 | 6.11° C | 44% | 975 hPa | - | - | - | - |
| 1777500187 | 6.11° C | 43% | 975 hPa | - | - | - | - |
| 1777499287 | 6.67° C | 43% | 974.9 hPa | - | - | - | - |
| 1777498387 | 7.22° C | 43% | 974.9 hPa | - | - | - | - |
| 1777497487 | 7.22° C | 42% | 974.7 hPa | - | - | - | - |
| 1777496587 | 7.78° C | 42% | 974.5 hPa | - | - | - | - |
| 1777495687 | 8.33° C | 41% | 974.5 hPa | - | - | - | - |
| 1777495552 | 8.89° C | 41% | 974.4 hPa | - | - | - | - |
| 1777493886 | 9.44° C | 41% | 974.3 hPa | - | - | - | - |
| 1777492986 | 10° C | 40% | 974.3 hPa | - | - | - | - |
| 1777492086 | 10.56° C | 40% | 974.2 hPa | - | - | - | - |
| 1777491186 | 11.11° C | 39% | 974.1 hPa | - | - | - | - |
| 1777490286 | 11.67° C | 38% | 973.9 hPa | - | - | - | - |
| 1777489386 | 12.78° C | 37% | 973.8 hPa | - | - | - | - |
| 1777488486 | 13.33° C | 37% | 973.6 hPa | - | - | - | - |
| 1777487586 | 14.44° C | 36% | 973.6 hPa | - | - | - | - |
| 1777486685 | 15° C | 34% | 973.4 hPa | - | - | - | - |
| 1777485785 | 15.56° C | 33% | 973.2 hPa | - | - | - | - |
| 1777484885 | 16.11° C | 33% | 972.9 hPa | - | - | - | - |
| 1777483985 | 16.67° C | 33% | 972.7 hPa | - | - | - | - |
* Rain since midnight (hover to see other rain measurements)
** Current wind speed in m/s (hover to see current wind gust speed)